Regional Weather Roundup
Issued by NWS

Home | Current Version | Previous Version | Graphics & Text | Print | Product List | Glossary On
Versions: 1 2 3 4 5 6 7 8 9 10 11 12 13 14 15 16 17 18 19 20 21 22 23 24 25 26 27 28 29 30 31 32 33 34 35 36 37 38 39 40 41 42 43 44 45 46 47 48 49
000
ASUS45 KBOU 310007
RWRCO

WEATHER ROUNDUP FOR COLORADO
NATIONAL WEATHER SERVICE DENVER/BOULDER CO
500 PM MST FRI JAN 30 2015

NOTE: "FAIR" INDICATES FEW OR NO CLOUDS BELOW 12000 FEET WITH NO
SIGNIFICANT WEATHER AND/OR OBSTRUCTIONS TO VISIBILITY.

COZ001>005-013-030-031-310100-
...NORTHWEST COLORADO...

CITY           SKY/WX    TMP DP  RH WIND       PRES   REMARKS
CRAIG          CLOUDY    36  32  85 S5        30.04S
HAYDEN         CLOUDY    36  28  75 SW7       30.03S
MEEKER         LGT RAIN  36  32  85 CALM      30.02F
MOUNT WERNER   NOT AVBL
STEAMBOAT SPGS CLOUDY    35  29  77 CALM      30.02S
WALDEN         CLOUDY    34  27  75 CALM      30.06S
$$

COZ006>008-011-310100-
...WEST CENTRAL VALLEYS...

CITY           SKY/WX    TMP DP  RH WIND       PRES   REMARKS
GRAND JUNCTION CLOUDY    43  38  82 S3        29.99F
MONTROSE       CLOUDY    41  36  82 NW6       30.01F
EAGLE          CLOUDY    37  34  87 CALM      30.05F
RIFLE          LGT RAIN  41  34  76 CALM      30.00F
DELTA          DRIZZLE   44  40  88 CALM      30.00F
NUCLA          DRIZZLE   37  34  87 CALM      30.03F
$$

COZ017>023-064>068-310100-
...SOUTHWEST COLORADO...

CITY           SKY/WX    TMP DP  RH WIND       PRES   REMARKS
DURANGO        FLURRIES  33  32  96 E6        30.04F WCI  28
CORTEZ         CLOUDY    38  35  89 CALM      30.00F
PAGOSA SPRINGS LGT SNOW  34  34 100 CALM      30.07S
TELLURIDE      CLOUDY    35  32  87 W6        30.01F WCI  30
WOLF CREEK PAS SNOW      23  23 100 SW10G17   30.13S VSB<1/4 WCI  12
$$

COZ009-010-012-014-032>034-037-058>063-310100-
...CENTRAL COLORADO...

CITY           SKY/WX    TMP DP  RH WIND       PRES   REMARKS
ASPEN          CLOUDY    34  28  79 N5        30.00F WCI  30
BUENA VISTA    LGT SNOW  32  31  95 CALM      30.09F VSB 3/4
COPPER MTN     LGT SNOW  28  23  80 S7        30.10F VSB 1   WCI  21
BERTHOUD PASS  HAZE      18  12  79 E23G29    30.13F VSB<1/4 WCI   0
COTTONWOOD PAS SNOW      30  28  93 CALM      30.09F VSB 1/2
GUNNISON       CLOUDY    34  30  86 NE6       30.06F WCI  29
KREMMLING      CLOUDY    32  23  69 CALM      30.07S
LEADVILLE      LGT SNOW  25  25 100 S9        30.06F FOG     WCI  15
MONARCH PASS   SNOW      23  21  93 MISG      30.21F VSB 1/2
SALIDA         CLOUDY    33  33  96 CALM      30.16F VSB 1/2
SUNLIGHT       LGT SNOW  30  28  93 CALM        N/A  VSB 3/4
WILKERSON PASS LGT SNOW  23  21  93 E9        30.14F VSB 1   WCI  13
$$

COZ069>075-310100-
...SAN LUIS VALLEY/SANGRE DE CRISTO MOUNTAINS...

CITY           SKY/WX    TMP DP  RH WIND       PRES   REMARKS
ALAMOSA        LGT SNOW  31  29  92 S3        30.08F FOG
LA VETA PASS   LGT SNOW  27  25  93 SW6       30.09S VSB 3/4 WCI  20
SAGUACHE       CLOUDY    30  28  93 E5        30.10F WCI  25
$$

COZ035-036-038>040-310100-
...NORTHERN COLORADO FRONT RANGE...

CITY           SKY/WX    TMP DP  RH WIND       PRES   REMARKS
DENVER INTL AP CLOUDY    43  27  53 N6        30.08R
DMNS CITY PARK   N/A     46  24  43 NE5       30.07S
AURORA         CLOUDY    43  26  51 N6        30.08S
FRONT RANGE AP NOT AVBL
ERIE MUNI ARPT CLOUDY    46  25  43 E3        30.08S
BOULDER MUN AP CLOUDY    46  27  46 CALM      30.08R
CENTENNIAL     CLOUDY    44  25  47 N9        30.08S
BROOMFIELD     CLOUDY    46  25  42 N6        30.09R
FORT COLLINS   CLOUDY    45  28  53 E6        30.10R
LONGMONT       CLOUDY    48  28  44 CALM      30.10R
$$

COZ041-046-047-076>085-087-088-310100-
...PIKES PEAK/PALMER DIVIDE AND SOUTHERN FOOTHILLS...

CITY           SKY/WX    TMP DP  RH WIND       PRES   REMARKS
COLO. SPRINGS  CLOUDY    40  25  55 CALM      30.07F
A. F. ACADEMY  CLOUDY    39  25  58 SE2       30.06F
ELLICOTT       CLOUDY   N/A N/A N/A CALM      30.06F
FALCON         CLOUDY    37  24  60 CALM      30.08S
FORT CARSON    CLOUDY    39  27  60 NE1       30.05F
LIMON          CLOUDY    38  31  76 S8        30.07F
MONUMENT HILL  CLOUDY    36  27  69 N7        30.07S
TRINIDAD       CLOUDY    36  33  89 SW10      30.06S
$$

COZ042>045-048>051-090-091-310100-
...NORTHEAST COLORADO...

CITY           SKY/WX    TMP DP  RH WIND       PRES   REMARKS
GREELEY ARPT   CLOUDY    43  27  52 CALM      30.08R
AKRON          CLOUDY    40  30  67 NW7       30.06S
BURLINGTON     CLOUDY    36  30  79 S20       30.12F
WRAY           CLOUDY    43  33  67 S14       30.10S
STERLING       CLOUDY    41  30  65 N3        30.06F
HOLYOKE        NOT AVBL
FORT MORGAN    CLOUDY    41  28  60 N5        30.08S
$$

COZ086-089-092>099-310100-
...SOUTHEAST COLORADO...

CITY           SKY/WX    TMP DP  RH WIND       PRES   REMARKS
PUEBLO         CLOUDY    42  34  73 CALM      30.06S
LA JUNTA       CLOUDY    40  37  89 SE9       30.07F
LAMAR          CLOUDY    37  35  92 S9        30.11F
SPRINGFIELD      N/A     32  32 100 S21       30.13F WCI  20
$$


USA.gov is the U.S. government's official web portal to all federal, state and local government web resources and services.